Flag for China Weather past 2 weeks in Shanghai, Shanghai Municipality, China

Now
68 °F

Scattered clouds.


Feels Like: 68 °F
Forecast: 53 / 73 °F
Wind: 6 mph from Southwest

Location: Shanghai Hongqiao Airport

Current Time: Mar 28, 2015 at 1:44:37 PM

Latest Report: Mar 28, 2015 at 1:00 PM


Visibility: 4 mi

Pressure: 30.07 "Hg

Humidity: 53%

Dew point: 50 °F

Location of ShanghaiLocation

Historic Weather in Shanghai — Graph

°F

Shanghai temperature yesterday

Maximum temperature yesterday: 55 °F (at 12:00 PM)
Minimum temperature yesterday: 52 °F (at 12:00 AM)
Average temperature yesterday: 53 °F

Past Weeks' High & Low Weather Summary

 TemperatureHumidityPressure
High73 °F (Mar 17, 1:30 PM)100% (Mar 16, 7:00 AM)30.57 "Hg (Mar 16, 7:00 AM)
Low46 °F (Mar 25, 5:30 AM)17% (Mar 22, 6:00 PM)29.62 "Hg (Mar 18, 4:00 AM)
Average56 °F73%30.18 "Hg
* Reported Mar 13 12:00 Noon — Mar 28 12:30 PM, Shanghai, Weather by CustomWeather, © 2015

Note: Actual official high and low records may vary slightly from our data, if they occured in-between our weather recording intervals... More about our weather records

Advertising

Shanghai weather history for previous 24 hours

 ConditionsComfort  
Time TempWeatherWind HumidityBarometerVisibility
12:30 PM
Sat, Mar 28
66 °FPartly sunny.3 mph60%30.07 "Hg4 mi
12:00 PM66 °FPartly sunny.8 mph60%30.09 "Hg4 mi
11:30 AM64 °FPartly sunny.8 mph64%30.09 "Hg4 mi
11:00 AM63 °FPartly sunny.8 mph68%30.12 "Hg5 mi
10:30 AM63 °FPartly sunny.6 mph68%30.12 "Hg5 mi
10:00 AM61 °FPartly sunny.8 mph68%30.15 "Hg4 mi
9:30 AM59 °FPartly sunny.8 mph72%30.15 "Hg4 mi
9:00 AM57 °FPartly sunny.6 mph77%30.15 "Hg4 mi
8:30 AM57 °FScattered clouds.6 mph72%30.15 "Hg5 mi
8:00 AM55 °FPassing clouds.3 mph77%30.15 "Hg5 mi
7:30 AM54 °FPartly sunny.3 mph82%30.15 "Hg4 mi
7:00 AM52 °FPartly sunny.3 mph88%30.15 "Hg4 mi
6:30 AM52 °FPartly sunny.3 mph88%30.15 "Hg4 mi
6:00 AM52 °FPartly sunny.1 mph88%30.15 "Hg4 mi
5:30 AM52 °FPassing clouds.1 mph82%30.15 "HgN/A
5:00 AM50 °FPassing clouds.1 mph88%30.15 "HgN/A
4:30 AM50 °FPassing clouds.3 mph94%30.15 "HgN/A
4:00 AM50 °FPassing clouds.1 mph94%30.15 "HgN/A
3:30 AM50 °FPassing clouds.1 mph94%30.15 "HgN/A
3:00 AM50 °FPassing clouds.1 mph88%30.15 "HgN/A
2:30 AM50 °FPassing clouds.3 mph88%30.18 "HgN/A
2:00 AM50 °FPassing clouds.1 mph94%30.18 "HgN/A
1:30 AM50 °FPassing clouds.1 mph88%30.21 "HgN/A
1:00 AM50 °FClear.1 mph88%30.21 "Hg10 mi
12:30 AM52 °FPassing clouds.3 mph82%30.21 "HgN/A
12:00 AM52 °FClear.3 mph82%30.24 "Hg10 mi
11:30 PM
Fri, Mar 27
52 °FClear.3 mph82%30.24 "Hg10 mi
11:00 PM52 °FPassing clouds.3 mph82%30.24 "HgN/A
10:30 PM52 °FPassing clouds.8 mph82%30.24 "HgN/A
10:00 PM54 °FPassing clouds.8 mph82%30.24 "HgN/A
9:30 PM54 °FPassing clouds.6 mph82%30.24 "HgN/A
9:00 PM54 °FPassing clouds.3 mph82%30.24 "HgN/A
8:30 PM54 °FPassing clouds.3 mph82%30.24 "HgN/A
8:00 PM54 °FPassing clouds.3 mph88%30.27 "HgN/A
7:30 PM54 °FPassing clouds.6 mph88%30.24 "HgN/A
7:00 PM54 °FPassing clouds.6 mph88%30.24 "HgN/A
6:30 PM54 °FPassing clouds.6 mph82%30.24 "HgN/A
6:00 PM54 °FPartly sunny.6 mph88%30.24 "HgN/A
5:30 PM55 °FPartly sunny.6 mph82%30.24 "HgN/A
5:00 PM55 °FPartly sunny.6 mph82%30.24 "HgN/A
4:30 PM55 °FPartly sunny.6 mph82%30.24 "HgN/A
4:00 PM55 °FPartly sunny.6 mph82%30.24 "HgN/A
3:30 PM55 °FPartly sunny.8 mph82%30.24 "HgN/A
3:00 PM55 °FPartly sunny.8 mph82%30.27 "HgN/A
2:30 PM55 °FPartly sunny.8 mph82%30.27 "HgN/A
2:00 PM55 °FPartly sunny.6 mph88%30.27 "HgN/A
1:30 PM55 °FPartly sunny.8 mph82%30.27 "HgN/A
1:00 PM55 °FPartly sunny.6 mph82%30.30 "HgN/A
Weather by CustomWeather, © 2015

See weather overviewHow to use our weather pages